Data supplied by UK-AIR on 31/3/2012
All Data GMT hour ending 
Status: R =Ratified P=Provisional,P*=As supplied
,,Aberdeen Union Street Roadside,,,,,,,,,,,,,,,,,,,,,,,
Date,time,"Nitric oxide",status,unit,"Nitrogen dioxide",status,unit,"Nitrogen oxides as nitrogen dioxide",status,unit
 
01-01-2011,01:00,13,R,ugm-3,25,R,ugm-3,44,R,ugm-3
01-01-2011,02:00,20,R,ugm-3,53,R,ugm-3,84,R,ugm-3
01-01-2011,03:00,21,R,ugm-3,44,R,ugm-3,76,R,ugm-3
01-01-2011,04:00,9,R,ugm-3,21,R,ugm-3,34,R,ugm-3
01-01-2011,05:00,5,R,ugm-3,15,R,ugm-3,23,R,ugm-3
01-01-2011,06:00,8,R,ugm-3,21,R,ugm-3,32,R,ugm-3
01-01-2011,07:00,8,R,ugm-3,15,R,ugm-3,27,R,ugm-3
01-01-2011,08:00,6,R,ugm-3,13,R,ugm-3,23,R,ugm-3
01-01-2011,09:00,3,R,ugm-3,10,R,ugm-3,13,R,ugm-3
01-01-2011,10:00,4,R,ugm-3,15,R,ugm-3,21,R,ugm-3
01-01-2011,11:00,4,R,ugm-3,15,R,ugm-3,21,R,ugm-3
01-01-2011,12:00,8,R,ugm-3,19,R,ugm-3,31,R,ugm-3
01-01-2011,13:00,18,R,ugm-3,32,R,ugm-3,59,R,ugm-3
01-01-2011,14:00,15,R,ugm-3,31,R,ugm-3,53,R,ugm-3
01-01-2011,15:00,18,R,ugm-3,36,R,ugm-3,63,R,ugm-3
01-01-2011,16:00,15,R,ugm-3,36,R,ugm-3,59,R,ugm-3
01-01-2011,17:00,21,R,ugm-3,42,R,ugm-3,74,R,ugm-3
01-01-2011,18:00,9,R,ugm-3,29,R,ugm-3,42,R,ugm-3
01-01-2011,19:00,10,R,ugm-3,34,R,ugm-3,50,R,ugm-3
01-01-2011,20:00,13,R,ugm-3,31,R,ugm-3,50,R,ugm-3
01-01-2011,21:00,14,R,ugm-3,21,R,ugm-3,42,R,ugm-3
01-01-2011,22:00,10,R,ugm-3,21,R,ugm-3,36,R,ugm-3
01-01-2011,23:00,14,R,ugm-3,29,R,ugm-3,50,R,ugm-3
01-01-2011,24:00,6,R,ugm-3,17,R,ugm-3,27,R,ugm-3
02-01-2011,01:00,10,R,ugm-3,15,R,ugm-3,31,R,ugm-3
02-01-2011,02:00,9,R,ugm-3,29,R,ugm-3,42,R,ugm-3
02-01-2011,03:00,1,R,ugm-3,13,R,ugm-3,15,R,ugm-3
02-01-2011,04:00,1,R,ugm-3,11,R,ugm-3,13,R,ugm-3
02-01-2011,05:00,3,R,ugm-3,13,R,ugm-3,17,R,ugm-3
02-01-2011,06:00,1,R,ugm-3,13,R,ugm-3,15,R,ugm-3
02-01-2011,07:00,3,R,ugm-3,13,R,ugm-3,17,R,ugm-3
02-01-2011,08:00,3,R,ugm-3,17,R,ugm-3,21,R,ugm-3
02-01-2011,09:00,4,R,ugm-3,23,R,ugm-3,29,R,ugm-3
02-01-2011,10:00,11,R,ugm-3,23,R,ugm-3,40,R,ugm-3
02-01-2011,11:00,75,R,ugm-3,59,R,ugm-3,174,R,ugm-3
02-01-2011,12:00,36,R,ugm-3,63,R,ugm-3,118,R,ugm-3
02-01-2011,13:00,34,R,ugm-3,67,R,ugm-3,118,R,ugm-3
02-01-2011,14:00,16,R,ugm-3,38,R,ugm-3,63,R,ugm-3
02-01-2011,15:00,60,R,ugm-3,61,R,ugm-3,153,R,ugm-3
02-01-2011,16:00,51,R,ugm-3,65,R,ugm-3,143,R,ugm-3
02-01-2011,17:00,43,R,ugm-3,71,R,ugm-3,136,R,ugm-3
02-01-2011,18:00,19,R,ugm-3,44,R,ugm-3,73,R,ugm-3
02-01-2011,19:00,31,R,ugm-3,71,R,ugm-3,118,R,ugm-3
02-01-2011,20:00,38,R,ugm-3,59,R,ugm-3,117,R,ugm-3
02-01-2011,21:00,24,R,ugm-3,48,R,ugm-3,84,R,ugm-3
02-01-2011,22:00,41,R,ugm-3,76,R,ugm-3,139,R,ugm-3
02-01-2011,23:00,38,R,ugm-3,61,R,ugm-3,118,R,ugm-3
02-01-2011,24:00,41,R,ugm-3,55,R,ugm-3,118,R,ugm-3
03-01-2011,01:00,5,R,ugm-3,29,R,ugm-3,36,R,ugm-3
03-01-2011,02:00,10,R,ugm-3,32,R,ugm-3,48,R,ugm-3
03-01-2011,03:00,3,R,ugm-3,29,R,ugm-3,32,R,ugm-3
03-01-2011,04:00,6,R,ugm-3,29,R,ugm-3,38,R,ugm-3
03-01-2011,05:00,9,R,ugm-3,31,R,ugm-3,44,R,ugm-3
03-01-2011,06:00,16,R,ugm-3,40,R,ugm-3,65,R,ugm-3
03-01-2011,07:00,53,R,ugm-3,80,R,ugm-3,160,R,ugm-3
03-01-2011,08:00,73,R,ugm-3,94,R,ugm-3,204,R,ugm-3
03-01-2011,09:00,74,R,ugm-3,71,R,ugm-3,183,R,ugm-3
03-01-2011,10:00,78,R,ugm-3,80,R,ugm-3,199,R,ugm-3
03-01-2011,11:00,73,R,ugm-3,80,R,ugm-3,191,R,ugm-3
03-01-2011,12:00,48,R,ugm-3,74,R,ugm-3,147,R,ugm-3
03-01-2011,13:00,26,R,ugm-3,40,R,ugm-3,80,R,ugm-3
03-01-2011,14:00,60,R,ugm-3,109,R,ugm-3,201,R,ugm-3
03-01-2011,15:00,49,R,ugm-3,74,R,ugm-3,149,R,ugm-3
03-01-2011,16:00,116,R,ugm-3,76,R,ugm-3,254,R,ugm-3
03-01-2011,17:00,103,R,ugm-3,74,R,ugm-3,231,R,ugm-3
03-01-2011,18:00,84,R,ugm-3,73,R,ugm-3,201,R,ugm-3
03-01-2011,19:00,45,R,ugm-3,59,R,ugm-3,128,R,ugm-3
03-01-2011,20:00,13,R,ugm-3,42,R,ugm-3,61,R,ugm-3
03-01-2011,21:00,21,R,ugm-3,46,R,ugm-3,78,R,ugm-3
03-01-2011,22:00,16,R,ugm-3,55,R,ugm-3,80,R,ugm-3
03-01-2011,23:00,31,R,ugm-3,65,R,ugm-3,113,R,ugm-3
03-01-2011,24:00,20,R,ugm-3,38,R,ugm-3,69,R,ugm-3
04-01-2011,01:00,20,R,ugm-3,29,R,ugm-3,59,R,ugm-3
04-01-2011,02:00,19,R,ugm-3,34,R,ugm-3,63,R,ugm-3
04-01-2011,03:00,5,R,ugm-3,25,R,ugm-3,32,R,ugm-3
04-01-2011,04:00,4,R,ugm-3,21,R,ugm-3,27,R,ugm-3
04-01-2011,05:00,3,R,ugm-3,17,R,ugm-3,21,R,ugm-3
04-01-2011,06:00,23,R,ugm-3,29,R,ugm-3,63,R,ugm-3
04-01-2011,07:00,29,R,ugm-3,46,R,ugm-3,90,R,ugm-3
04-01-2011,08:00,48,R,ugm-3,65,R,ugm-3,138,R,ugm-3
04-01-2011,09:00,60,R,ugm-3,63,R,ugm-3,155,R,ugm-3
04-01-2011,10:00,60,R,ugm-3,71,R,ugm-3,162,R,ugm-3
04-01-2011,11:00,56,R,ugm-3,55,R,ugm-3,141,R,ugm-3
04-01-2011,12:00,60,R,ugm-3,48,R,ugm-3,139,R,ugm-3
04-01-2011,13:00,56,R,ugm-3,111,R,ugm-3,197,R,ugm-3
04-01-2011,14:00,30,R,ugm-3,42,R,ugm-3,88,R,ugm-3
04-01-2011,15:00,100,R,ugm-3,76,R,ugm-3,229,R,ugm-3
04-01-2011,16:00,34,R,ugm-3,50,R,ugm-3,101,R,ugm-3
04-01-2011,17:00,40,R,ugm-3,50,R,ugm-3,111,R,ugm-3
04-01-2011,18:00,29,R,ugm-3,48,R,ugm-3,92,R,ugm-3
04-01-2011,19:00,20,R,ugm-3,40,R,ugm-3,71,R,ugm-3
04-01-2011,20:00,14,R,ugm-3,38,R,ugm-3,59,R,ugm-3
04-01-2011,21:00,13,R,ugm-3,21,R,ugm-3,40,R,ugm-3
04-01-2011,22:00,13,R,ugm-3,21,R,ugm-3,40,R,ugm-3
04-01-2011,23:00,8,R,ugm-3,13,R,ugm-3,25,R,ugm-3
04-01-2011,24:00,6,R,ugm-3,10,R,ugm-3,19,R,ugm-3
05-01-2011,01:00,1,R,ugm-3,10,R,ugm-3,11,R,ugm-3
05-01-2011,02:00,0,R,ugm-3,21,R,ugm-3,21,R,ugm-3
05-01-2011,03:00,1,R,ugm-3,17,R,ugm-3,19,R,ugm-3
05-01-2011,04:00,1,R,ugm-3,17,R,ugm-3,19,R,ugm-3
05-01-2011,05:00,3,R,ugm-3,29,R,ugm-3,32,R,ugm-3
05-01-2011,06:00,10,R,ugm-3,42,R,ugm-3,57,R,ugm-3
05-01-2011,07:00,105,R,ugm-3,105,R,ugm-3,265,R,ugm-3
05-01-2011,08:00,145,R,ugm-3,120,R,ugm-3,342,R,ugm-3
05-01-2011,09:00,336,R,ugm-3,264,R,ugm-3,777,R,ugm-3
05-01-2011,10:00,154,R,ugm-3,138,R,ugm-3,372,R,ugm-3
05-01-2011,11:00,91,R,ugm-3,105,R,ugm-3,244,R,ugm-3
05-01-2011,12:00,50,R,ugm-3,61,R,ugm-3,138,R,ugm-3
05-01-2011,13:00,40,R,ugm-3,67,R,ugm-3,128,R,ugm-3
05-01-2011,14:00,44,R,ugm-3,57,R,ugm-3,124,R,ugm-3
05-01-2011,15:00,58,R,ugm-3,101,R,ugm-3,189,R,ugm-3
05-01-2011,16:00,66,R,ugm-3,69,R,ugm-3,170,R,ugm-3
05-01-2011,17:00,43,R,ugm-3,78,R,ugm-3,143,R,ugm-3
05-01-2011,18:00,133,R,ugm-3,88,R,ugm-3,290,R,ugm-3
05-01-2011,19:00,55,R,ugm-3,82,R,ugm-3,166,R,ugm-3
05-01-2011,20:00,123,R,ugm-3,74,R,ugm-3,262,R,ugm-3
05-01-2011,21:00,75,R,ugm-3,88,R,ugm-3,202,R,ugm-3
05-01-2011,22:00,30,R,ugm-3,53,R,ugm-3,99,R,ugm-3
05-01-2011,23:00,16,R,ugm-3,44,R,ugm-3,69,R,ugm-3
05-01-2011,24:00,23,R,ugm-3,50,R,ugm-3,84,R,ugm-3
06-01-2011,01:00,13,R,ugm-3,21,R,ugm-3,40,R,ugm-3
06-01-2011,02:00,1,R,ugm-3,25,R,ugm-3,27,R,ugm-3
06-01-2011,03:00,3,R,ugm-3,13,R,ugm-3,17,R,ugm-3
06-01-2011,04:00,1,R,ugm-3,10,R,ugm-3,11,R,ugm-3
06-01-2011,05:00,3,R,ugm-3,8,R,ugm-3,11,R,ugm-3
06-01-2011,06:00,29,R,ugm-3,11,R,ugm-3,55,R,ugm-3
06-01-2011,07:00,9,R,ugm-3,36,R,ugm-3,50,R,ugm-3
06-01-2011,08:00,60,R,ugm-3,67,R,ugm-3,159,R,ugm-3
06-01-2011,09:00,123,R,ugm-3,78,R,ugm-3,265,R,ugm-3
06-01-2011,10:00,91,R,ugm-3,63,R,ugm-3,202,R,ugm-3
06-01-2011,11:00,70,R,ugm-3,74,R,ugm-3,181,R,ugm-3
06-01-2011,12:00,66,R,ugm-3,71,R,ugm-3,172,R,ugm-3
06-01-2011,13:00,104,R,ugm-3,82,R,ugm-3,241,R,ugm-3
06-01-2011,14:00,103,R,ugm-3,63,R,ugm-3,220,R,ugm-3
06-01-2011,15:00,263,R,ugm-3,97,R,ugm-3,499,R,ugm-3
06-01-2011,16:00,114,R,ugm-3,88,R,ugm-3,262,R,ugm-3
06-01-2011,17:00,145,R,ugm-3,130,R,ugm-3,351,R,ugm-3
06-01-2011,18:00,144,R,ugm-3,97,R,ugm-3,317,R,ugm-3
06-01-2011,19:00,193,R,ugm-3,88,R,ugm-3,382,R,ugm-3
06-01-2011,20:00,74,R,ugm-3,147,R,ugm-3,260,R,ugm-3
06-01-2011,21:00,33,R,ugm-3,52,R,ugm-3,101,R,ugm-3
06-01-2011,22:00,33,R,ugm-3,73,R,ugm-3,122,R,ugm-3
06-01-2011,23:00,43,R,ugm-3,67,R,ugm-3,132,R,ugm-3
06-01-2011,24:00,29,R,ugm-3,27,R,ugm-3,71,R,ugm-3
07-01-2011,01:00,20,R,ugm-3,34,R,ugm-3,65,R,ugm-3
07-01-2011,02:00,9,R,ugm-3,25,R,ugm-3,38,R,ugm-3
07-01-2011,03:00,13,R,ugm-3,40,R,ugm-3,59,R,ugm-3
07-01-2011,04:00,6,R,ugm-3,21,R,ugm-3,31,R,ugm-3
07-01-2011,05:00,13,R,ugm-3,36,R,ugm-3,55,R,ugm-3
07-01-2011,06:00,46,R,ugm-3,61,R,ugm-3,132,R,ugm-3
07-01-2011,07:00,96,R,ugm-3,107,R,ugm-3,254,R,ugm-3
07-01-2011,08:00,221,R,ugm-3,160,R,ugm-3,499,R,ugm-3
07-01-2011,09:00,138,R,ugm-3,151,R,ugm-3,361,R,ugm-3
07-01-2011,10:00,160,R,ugm-3,212,R,ugm-3,456,R,ugm-3
07-01-2011,11:00,65,R,ugm-3,73,R,ugm-3,172,R,ugm-3
07-01-2011,12:00,34,R,ugm-3,67,R,ugm-3,118,R,ugm-3
07-01-2011,13:00,46,R,ugm-3,57,R,ugm-3,128,R,ugm-3
07-01-2011,14:00,30,R,ugm-3,50,R,ugm-3,96,R,ugm-3
07-01-2011,15:00,48,R,ugm-3,65,R,ugm-3,138,R,ugm-3
07-01-2011,16:00,73,R,ugm-3,92,R,ugm-3,202,R,ugm-3
07-01-2011,17:00,48,R,ugm-3,99,R,ugm-3,172,R,ugm-3
07-01-2011,18:00,101,R,ugm-3,92,R,ugm-3,246,R,ugm-3
07-01-2011,19:00,91,R,ugm-3,103,R,ugm-3,243,R,ugm-3
07-01-2011,20:00,176,R,ugm-3,86,R,ugm-3,355,R,ugm-3
07-01-2011,21:00,86,R,ugm-3,109,R,ugm-3,241,R,ugm-3
07-01-2011,22:00,185,R,ugm-3,111,R,ugm-3,393,R,ugm-3
07-01-2011,23:00,155,R,ugm-3,107,R,ugm-3,344,R,ugm-3
07-01-2011,24:00,170,R,ugm-3,92,R,ugm-3,351,R,ugm-3
08-01-2011,01:00,101,R,ugm-3,88,R,ugm-3,243,R,ugm-3
08-01-2011,02:00,33,R,ugm-3,84,R,ugm-3,134,R,ugm-3
08-01-2011,03:00,23,R,ugm-3,63,R,ugm-3,97,R,ugm-3
08-01-2011,04:00,9,R,ugm-3,34,R,ugm-3,48,R,ugm-3
08-01-2011,05:00,5,R,ugm-3,21,R,ugm-3,29,R,ugm-3
08-01-2011,06:00,5,R,ugm-3,23,R,ugm-3,31,R,ugm-3
08-01-2011,07:00,23,R,ugm-3,55,R,ugm-3,90,R,ugm-3
08-01-2011,08:00,21,R,ugm-3,55,R,ugm-3,88,R,ugm-3
08-01-2011,09:00,46,R,ugm-3,59,R,ugm-3,130,R,ugm-3
08-01-2011,10:00,26,R,ugm-3,50,R,ugm-3,90,R,ugm-3
08-01-2011,11:00,29,R,ugm-3,69,R,ugm-3,113,R,ugm-3
08-01-2011,12:00,111,R,ugm-3,162,R,ugm-3,332,R,ugm-3
08-01-2011,13:00,116,R,ugm-3,80,R,ugm-3,258,R,ugm-3
08-01-2011,14:00,86,R,ugm-3,103,R,ugm-3,235,R,ugm-3
08-01-2011,15:00,125,R,ugm-3,90,R,ugm-3,281,R,ugm-3
08-01-2011,16:00,189,R,ugm-3,122,R,ugm-3,411,R,ugm-3
08-01-2011,17:00,196,R,ugm-3,151,R,ugm-3,451,R,ugm-3
08-01-2011,18:00,85,R,ugm-3,74,R,ugm-3,204,R,ugm-3
08-01-2011,19:00,90,R,ugm-3,126,R,ugm-3,264,R,ugm-3
08-01-2011,20:00,114,R,ugm-3,107,R,ugm-3,281,R,ugm-3
08-01-2011,21:00,95,R,ugm-3,141,R,ugm-3,287,R,ugm-3
08-01-2011,22:00,126,R,ugm-3,86,R,ugm-3,279,R,ugm-3
08-01-2011,23:00,85,R,ugm-3,90,R,ugm-3,220,R,ugm-3
08-01-2011,24:00,89,R,ugm-3,90,R,ugm-3,225,R,ugm-3
09-01-2011,01:00,70,R,ugm-3,80,R,ugm-3,187,R,ugm-3
09-01-2011,02:00,36,R,ugm-3,57,R,ugm-3,113,R,ugm-3
09-01-2011,03:00,23,R,ugm-3,34,R,ugm-3,69,R,ugm-3
09-01-2011,04:00,18,R,ugm-3,44,R,ugm-3,71,R,ugm-3
09-01-2011,05:00,6,R,ugm-3,29,R,ugm-3,38,R,ugm-3
09-01-2011,06:00,10,R,ugm-3,38,R,ugm-3,53,R,ugm-3
09-01-2011,07:00,38,R,ugm-3,53,R,ugm-3,111,R,ugm-3
09-01-2011,08:00,13,R,ugm-3,59,R,ugm-3,78,R,ugm-3
09-01-2011,09:00,16,R,ugm-3,36,R,ugm-3,61,R,ugm-3
09-01-2011,10:00,60,R,ugm-3,111,R,ugm-3,202,R,ugm-3
09-01-2011,11:00,20,R,ugm-3,36,R,ugm-3,67,R,ugm-3
09-01-2011,12:00,81,R,ugm-3,86,R,ugm-3,210,R,ugm-3
09-01-2011,13:00,85,R,ugm-3,111,R,ugm-3,241,R,ugm-3
09-01-2011,14:00,95,R,ugm-3,124,R,ugm-3,269,R,ugm-3
09-01-2011,15:00,86,R,ugm-3,126,R,ugm-3,258,R,ugm-3
09-01-2011,16:00,79,R,ugm-3,80,R,ugm-3,201,R,ugm-3
09-01-2011,17:00,86,R,ugm-3,88,R,ugm-3,220,R,ugm-3
09-01-2011,18:00,38,R,ugm-3,57,R,ugm-3,115,R,ugm-3
09-01-2011,19:00,48,R,ugm-3,80,R,ugm-3,153,R,ugm-3
09-01-2011,20:00,128,R,ugm-3,103,R,ugm-3,298,R,ugm-3
09-01-2011,21:00,53,R,ugm-3,73,R,ugm-3,153,R,ugm-3
09-01-2011,22:00,38,R,ugm-3,61,R,ugm-3,118,R,ugm-3
09-01-2011,23:00,10,R,ugm-3,23,R,ugm-3,38,R,ugm-3
09-01-2011,24:00,8,R,ugm-3,15,R,ugm-3,27,R,ugm-3
10-01-2011,01:00,3,R,ugm-3,11,R,ugm-3,15,R,ugm-3
10-01-2011,02:00,1,R,ugm-3,23,R,ugm-3,25,R,ugm-3
10-01-2011,03:00,3,R,ugm-3,15,R,ugm-3,19,R,ugm-3
10-01-2011,04:00,1,R,ugm-3,13,R,ugm-3,15,R,ugm-3
10-01-2011,05:00,1,R,ugm-3,10,R,ugm-3,11,R,ugm-3
10-01-2011,06:00,5,R,ugm-3,17,R,ugm-3,25,R,ugm-3
10-01-2011,07:00,19,R,ugm-3,42,R,ugm-3,71,R,ugm-3
10-01-2011,08:00,40,R,ugm-3,48,R,ugm-3,109,R,ugm-3
10-01-2011,09:00,133,R,ugm-3,111,R,ugm-3,313,R,ugm-3
10-01-2011,10:00,74,R,ugm-3,69,R,ugm-3,181,R,ugm-3
10-01-2011,11:00,156,R,ugm-3,82,R,ugm-3,321,R,ugm-3
10-01-2011,12:00,70,R,ugm-3,55,R,ugm-3,162,R,ugm-3
10-01-2011,13:00,134,R,ugm-3,59,R,ugm-3,264,R,ugm-3
10-01-2011,14:00,64,R,ugm-3,80,R,ugm-3,178,R,ugm-3
10-01-2011,15:00,80,R,ugm-3,67,R,ugm-3,189,R,ugm-3
10-01-2011,16:00,84,R,ugm-3,78,R,ugm-3,206,R,ugm-3
10-01-2011,17:00,213,R,ugm-3,88,R,ugm-3,413,R,ugm-3
10-01-2011,18:00,261,R,ugm-3,139,R,ugm-3,539,R,ugm-3
10-01-2011,19:00,258,R,ugm-3,115,R,ugm-3,508,R,ugm-3
10-01-2011,20:00,245,R,ugm-3,109,R,ugm-3,483,R,ugm-3
10-01-2011,21:00,246,R,ugm-3,139,R,ugm-3,516,R,ugm-3
10-01-2011,22:00,150,R,ugm-3,88,R,ugm-3,317,R,ugm-3
10-01-2011,23:00,48,R,ugm-3,48,R,ugm-3,120,R,ugm-3
10-01-2011,24:00,23,R,ugm-3,44,R,ugm-3,78,R,ugm-3
11-01-2011,01:00,18,R,ugm-3,29,R,ugm-3,55,R,ugm-3
11-01-2011,02:00,3,R,ugm-3,29,R,ugm-3,32,R,ugm-3
11-01-2011,03:00,4,R,ugm-3,15,R,ugm-3,21,R,ugm-3
11-01-2011,04:00,3,R,ugm-3,13,R,ugm-3,17,R,ugm-3
11-01-2011,05:00,3,R,ugm-3,13,R,ugm-3,17,R,ugm-3
11-01-2011,06:00,16,R,ugm-3,27,R,ugm-3,52,R,ugm-3
11-01-2011,07:00,74,R,ugm-3,61,R,ugm-3,174,R,ugm-3
11-01-2011,08:00,188,R,ugm-3,111,R,ugm-3,397,R,ugm-3
11-01-2011,09:00,115,R,ugm-3,96,R,ugm-3,271,R,ugm-3
11-01-2011,10:00,194,R,ugm-3,117,R,ugm-3,413,R,ugm-3
11-01-2011,11:00,229,R,ugm-3,151,R,ugm-3,500,R,ugm-3
11-01-2011,12:00,61,R,ugm-3,80,R,ugm-3,174,R,ugm-3
11-01-2011,13:00,84,R,ugm-3,63,R,ugm-3,191,R,ugm-3
11-01-2011,14:00,73,R,ugm-3,86,R,ugm-3,197,R,ugm-3
11-01-2011,15:00,124,R,ugm-3,59,R,ugm-3,248,R,ugm-3
11-01-2011,16:00,240,R,ugm-3,97,R,ugm-3,464,R,ugm-3
11-01-2011,17:00,160,R,ugm-3,117,R,ugm-3,361,R,ugm-3
11-01-2011,18:00,313,R,ugm-3,130,R,ugm-3,607,R,ugm-3
11-01-2011,19:00,156,R,ugm-3,118,R,ugm-3,357,R,ugm-3
11-01-2011,20:00,209,R,ugm-3,118,R,ugm-3,437,R,ugm-3
11-01-2011,21:00,70,R,ugm-3,94,R,ugm-3,201,R,ugm-3
11-01-2011,22:00,61,R,ugm-3,90,R,ugm-3,183,R,ugm-3
11-01-2011,23:00,33,R,ugm-3,46,R,ugm-3,96,R,ugm-3
11-01-2011,24:00,38,R,ugm-3,67,R,ugm-3,124,R,ugm-3
12-01-2011,01:00,11,R,ugm-3,46,R,ugm-3,63,R,ugm-3
12-01-2011,02:00,0,R,ugm-3,23,R,ugm-3,23,R,ugm-3
12-01-2011,03:00,3,R,ugm-3,21,R,ugm-3,25,R,ugm-3
12-01-2011,04:00,0,R,ugm-3,17,R,ugm-3,17,R,ugm-3
12-01-2011,05:00,1,R,ugm-3,13,R,ugm-3,15,R,ugm-3
12-01-2011,06:00,5,R,ugm-3,31,R,ugm-3,38,R,ugm-3
12-01-2011,07:00,13,R,ugm-3,31,R,ugm-3,50,R,ugm-3
12-01-2011,08:00,20,R,ugm-3,42,R,ugm-3,73,R,ugm-3
12-01-2011,09:00,23,R,ugm-3,48,R,ugm-3,82,R,ugm-3
12-01-2011,10:00,25,R,ugm-3,48,R,ugm-3,86,R,ugm-3
12-01-2011,11:00,56,R,ugm-3,84,R,ugm-3,170,R,ugm-3
12-01-2011,12:00,36,R,ugm-3,46,R,ugm-3,101,R,ugm-3
12-01-2011,13:00,56,R,ugm-3,44,R,ugm-3,130,R,ugm-3
12-01-2011,14:00,56,R,ugm-3,74,R,ugm-3,160,R,ugm-3
12-01-2011,15:00,101,R,ugm-3,99,R,ugm-3,254,R,ugm-3
12-01-2011,16:00,121,R,ugm-3,105,R,ugm-3,290,R,ugm-3
12-01-2011,17:00,119,R,ugm-3,101,R,ugm-3,283,R,ugm-3
12-01-2011,18:00,228,R,ugm-3,157,R,ugm-3,504,R,ugm-3
12-01-2011,19:00,73,R,ugm-3,99,R,ugm-3,210,R,ugm-3
12-01-2011,20:00,125,R,ugm-3,82,R,ugm-3,273,R,ugm-3
12-01-2011,21:00,118,R,ugm-3,109,R,ugm-3,288,R,ugm-3
12-01-2011,22:00,58,R,ugm-3,96,R,ugm-3,183,R,ugm-3
12-01-2011,23:00,69,R,ugm-3,67,R,ugm-3,172,R,ugm-3
12-01-2011,24:00,25,R,ugm-3,50,R,ugm-3,88,R,ugm-3
13-01-2011,01:00,14,R,ugm-3,36,R,ugm-3,57,R,ugm-3
13-01-2011,02:00,16,R,ugm-3,46,R,ugm-3,71,R,ugm-3
13-01-2011,03:00,13,R,ugm-3,40,R,ugm-3,59,R,ugm-3
13-01-2011,04:00,6,R,ugm-3,32,R,ugm-3,42,R,ugm-3
13-01-2011,05:00,24,R,ugm-3,46,R,ugm-3,82,R,ugm-3
13-01-2011,06:00,96,R,ugm-3,67,R,ugm-3,214,R,ugm-3
13-01-2011,07:00,239,R,ugm-3,107,R,ugm-3,472,R,ugm-3
13-01-2011,08:00,278,R,ugm-3,128,R,ugm-3,552,R,ugm-3
13-01-2011,09:00,435,R,ugm-3,168,R,ugm-3,833,R,ugm-3
13-01-2011,10:00,556,R,ugm-3,168,R,ugm-3,1018,R,ugm-3
13-01-2011,11:00,409,R,ugm-3,147,R,ugm-3,772,R,ugm-3
13-01-2011,12:00,231,R,ugm-3,141,R,ugm-3,495,R,ugm-3
13-01-2011,13:00,180,R,ugm-3,128,R,ugm-3,403,R,ugm-3
13-01-2011,14:00,199,R,ugm-3,82,R,ugm-3,386,R,ugm-3
13-01-2011,15:00,224,R,ugm-3,124,R,ugm-3,466,R,ugm-3
13-01-2011,16:00,243,R,ugm-3,96,R,ugm-3,466,R,ugm-3
13-01-2011,17:00,400,R,ugm-3,153,R,ugm-3,764,R,ugm-3
13-01-2011,18:00,405,R,ugm-3,138,R,ugm-3,756,R,ugm-3
13-01-2011,19:00,278,R,ugm-3,149,R,ugm-3,573,R,ugm-3
13-01-2011,20:00,268,R,ugm-3,147,R,ugm-3,556,R,ugm-3
13-01-2011,21:00,288,R,ugm-3,109,R,ugm-3,548,R,ugm-3
13-01-2011,22:00,64,R,ugm-3,73,R,ugm-3,170,R,ugm-3
13-01-2011,23:00,140,R,ugm-3,170,R,ugm-3,384,R,ugm-3
13-01-2011,24:00,134,R,ugm-3,94,R,ugm-3,298,R,ugm-3
14-01-2011,01:00,11,R,ugm-3,40,R,ugm-3,57,R,ugm-3
14-01-2011,02:00,3,R,ugm-3,25,R,ugm-3,29,R,ugm-3
14-01-2011,03:00,1,R,ugm-3,15,R,ugm-3,17,R,ugm-3
14-01-2011,04:00,1,R,ugm-3,17,R,ugm-3,19,R,ugm-3
14-01-2011,05:00,3,R,ugm-3,17,R,ugm-3,21,R,ugm-3
14-01-2011,06:00,119,R,ugm-3,40,R,ugm-3,222,R,ugm-3
14-01-2011,07:00,33,R,ugm-3,52,R,ugm-3,101,R,ugm-3
14-01-2011,08:00,53,R,ugm-3,53,R,ugm-3,134,R,ugm-3
14-01-2011,09:00,49,R,ugm-3,61,R,ugm-3,136,R,ugm-3
14-01-2011,10:00,50,R,ugm-3,36,R,ugm-3,113,R,ugm-3
14-01-2011,11:00,49,R,ugm-3,40,R,ugm-3,115,R,ugm-3
14-01-2011,12:00,43,R,ugm-3,40,R,ugm-3,105,R,ugm-3
14-01-2011,13:00,56,R,ugm-3,71,R,ugm-3,157,R,ugm-3
14-01-2011,14:00,29,R,ugm-3,48,R,ugm-3,92,R,ugm-3
14-01-2011,15:00,43,R,ugm-3,63,R,ugm-3,128,R,ugm-3
14-01-2011,16:00,40,R,ugm-3,65,R,ugm-3,126,R,ugm-3
14-01-2011,17:00,58,R,ugm-3,46,R,ugm-3,134,R,ugm-3
14-01-2011,18:00,153,R,ugm-3,126,R,ugm-3,359,R,ugm-3
14-01-2011,19:00,136,R,ugm-3,117,R,ugm-3,325,R,ugm-3
14-01-2011,20:00,54,R,ugm-3,90,R,ugm-3,172,R,ugm-3
14-01-2011,21:00,74,R,ugm-3,78,R,ugm-3,191,R,ugm-3
14-01-2011,22:00,71,R,ugm-3,65,R,ugm-3,174,R,ugm-3
14-01-2011,23:00,36,R,ugm-3,55,R,ugm-3,111,R,ugm-3
14-01-2011,24:00,11,R,ugm-3,27,R,ugm-3,44,R,ugm-3
15-01-2011,01:00,6,R,ugm-3,21,R,ugm-3,31,R,ugm-3
15-01-2011,02:00,5,R,ugm-3,25,R,ugm-3,32,R,ugm-3
15-01-2011,03:00,10,R,ugm-3,25,R,ugm-3,40,R,ugm-3
15-01-2011,04:00,4,R,ugm-3,13,R,ugm-3,19,R,ugm-3
15-01-2011,05:00,3,R,ugm-3,6,R,ugm-3,10,R,ugm-3
15-01-2011,06:00,3,R,ugm-3,6,R,ugm-3,10,R,ugm-3
15-01-2011,07:00,5,R,ugm-3,15,R,ugm-3,23,R,ugm-3
15-01-2011,08:00,20,R,ugm-3,40,R,ugm-3,71,R,ugm-3
15-01-2011,09:00,20,R,ugm-3,25,R,ugm-3,55,R,ugm-3
15-01-2011,10:00,11,R,ugm-3,29,R,ugm-3,46,R,ugm-3
15-01-2011,11:00,23,R,ugm-3,31,R,ugm-3,65,R,ugm-3
15-01-2011,12:00,16,R,ugm-3,40,R,ugm-3,65,R,ugm-3
15-01-2011,13:00,25,R,ugm-3,32,R,ugm-3,71,R,ugm-3
15-01-2011,14:00,28,R,ugm-3,73,R,ugm-3,115,R,ugm-3
15-01-2011,15:00,131,R,ugm-3,80,R,ugm-3,281,R,ugm-3
15-01-2011,16:00,36,R,ugm-3,57,R,ugm-3,113,R,ugm-3
15-01-2011,17:00,23,R,ugm-3,46,R,ugm-3,80,R,ugm-3
15-01-2011,18:00,20,R,ugm-3,44,R,ugm-3,74,R,ugm-3
15-01-2011,19:00,33,R,ugm-3,55,R,ugm-3,105,R,ugm-3
15-01-2011,20:00,115,R,ugm-3,86,R,ugm-3,262,R,ugm-3
15-01-2011,21:00,18,R,ugm-3,74,R,ugm-3,101,R,ugm-3
15-01-2011,22:00,23,R,ugm-3,25,R,ugm-3,59,R,ugm-3
15-01-2011,23:00,43,R,ugm-3,57,R,ugm-3,122,R,ugm-3
15-01-2011,24:00,24,R,ugm-3,32,R,ugm-3,69,R,ugm-3
16-01-2011,01:00,15,R,ugm-3,21,R,ugm-3,44,R,ugm-3
16-01-2011,02:00,19,R,ugm-3,23,R,ugm-3,52,R,ugm-3
16-01-2011,03:00,10,R,ugm-3,31,R,ugm-3,46,R,ugm-3
16-01-2011,04:00,5,R,ugm-3,21,R,ugm-3,29,R,ugm-3
16-01-2011,05:00,4,R,ugm-3,15,R,ugm-3,21,R,ugm-3
16-01-2011,06:00,5,R,ugm-3,19,R,ugm-3,27,R,ugm-3
16-01-2011,07:00,1,R,ugm-3,13,R,ugm-3,15,R,ugm-3
16-01-2011,08:00,5,R,ugm-3,13,R,ugm-3,21,R,ugm-3
16-01-2011,09:00,4,R,ugm-3,8,R,ugm-3,13,R,ugm-3
16-01-2011,10:00,5,R,ugm-3,17,R,ugm-3,25,R,ugm-3
16-01-2011,11:00,13,R,ugm-3,13,R,ugm-3,32,R,ugm-3
16-01-2011,12:00,11,R,ugm-3,13,R,ugm-3,31,R,ugm-3
16-01-2011,13:00,18,R,ugm-3,13,R,ugm-3,40,R,ugm-3
16-01-2011,14:00,51,R,ugm-3,25,R,ugm-3,103,R,ugm-3
16-01-2011,15:00,43,R,ugm-3,44,R,ugm-3,109,R,ugm-3
16-01-2011,16:00,20,R,ugm-3,29,R,ugm-3,59,R,ugm-3
16-01-2011,17:00,41,R,ugm-3,36,R,ugm-3,99,R,ugm-3
16-01-2011,18:00,26,R,ugm-3,78,R,ugm-3,118,R,ugm-3
16-01-2011,19:00,28,R,ugm-3,53,R,ugm-3,96,R,ugm-3
16-01-2011,20:00,11,R,ugm-3,21,R,ugm-3,38,R,ugm-3
16-01-2011,21:00,8,R,ugm-3,23,R,ugm-3,34,R,ugm-3
16-01-2011,22:00,5,R,ugm-3,25,R,ugm-3,32,R,ugm-3
16-01-2011,23:00,6,R,ugm-3,25,R,ugm-3,34,R,ugm-3
16-01-2011,24:00,4,R,ugm-3,10,R,ugm-3,15,R,ugm-3
17-01-2011,01:00,1,R,ugm-3,10,R,ugm-3,11,R,ugm-3
17-01-2011,02:00,1,R,ugm-3,11,R,ugm-3,13,R,ugm-3
17-01-2011,03:00,1,R,ugm-3,8,R,ugm-3,10,R,ugm-3
17-01-2011,04:00,1,R,ugm-3,8,R,ugm-3,10,R,ugm-3
17-01-2011,05:00,3,R,ugm-3,10,R,ugm-3,13,R,ugm-3
17-01-2011,06:00,23,R,ugm-3,36,R,ugm-3,71,R,ugm-3
17-01-2011,07:00,36,R,ugm-3,61,R,ugm-3,117,R,ugm-3
17-01-2011,08:00,295,R,ugm-3,151,R,ugm-3,602,R,ugm-3
17-01-2011,09:00,236,R,ugm-3,164,R,ugm-3,525,R,ugm-3
17-01-2011,10:00,191,R,ugm-3,120,R,ugm-3,413,R,ugm-3
17-01-2011,11:00,68,R,ugm-3,94,R,ugm-3,197,R,ugm-3
17-01-2011,12:00,94,R,ugm-3,74,R,ugm-3,218,R,ugm-3
17-01-2011,13:00,69,R,ugm-3,55,R,ugm-3,160,R,ugm-3
17-01-2011,14:00,100,R,ugm-3,63,R,ugm-3,216,R,ugm-3
17-01-2011,15:00,35,R,ugm-3,59,R,ugm-3,113,R,ugm-3
17-01-2011,16:00,111,R,ugm-3,120,R,ugm-3,290,R,ugm-3
17-01-2011,17:00,239,R,ugm-3,197,R,ugm-3,562,R,ugm-3
17-01-2011,18:00,251,R,ugm-3,162,R,ugm-3,546,R,ugm-3
17-01-2011,19:00,141,R,ugm-3,130,R,ugm-3,346,R,ugm-3
17-01-2011,20:00,175,R,ugm-3,115,R,ugm-3,382,R,ugm-3
17-01-2011,21:00,133,R,ugm-3,96,R,ugm-3,298,R,ugm-3
17-01-2011,22:00,115,R,ugm-3,128,R,ugm-3,304,R,ugm-3
17-01-2011,23:00,71,R,ugm-3,71,R,ugm-3,180,R,ugm-3
17-01-2011,24:00,34,R,ugm-3,71,R,ugm-3,122,R,ugm-3
18-01-2011,01:00,23,R,ugm-3,48,R,ugm-3,82,R,ugm-3
18-01-2011,02:00,5,R,ugm-3,34,R,ugm-3,42,R,ugm-3
18-01-2011,03:00,15,R,ugm-3,42,R,ugm-3,65,R,ugm-3
18-01-2011,04:00,8,R,ugm-3,27,R,ugm-3,38,R,ugm-3
18-01-2011,05:00,11,R,ugm-3,27,R,ugm-3,44,R,ugm-3
18-01-2011,06:00,79,R,ugm-3,122,R,ugm-3,243,R,ugm-3
18-01-2011,07:00,59,R,ugm-3,73,R,ugm-3,162,R,ugm-3
18-01-2011,08:00,159,R,ugm-3,141,R,ugm-3,384,R,ugm-3
18-01-2011,09:00,334,R,ugm-3,164,R,ugm-3,674,R,ugm-3
18-01-2011,10:00,266,R,ugm-3,189,R,ugm-3,596,R,ugm-3
18-01-2011,11:00,140,R,ugm-3,105,R,ugm-3,319,R,ugm-3
18-01-2011,12:00,118,R,ugm-3,118,R,ugm-3,298,R,ugm-3
18-01-2011,13:00,253,R,ugm-3,164,R,ugm-3,550,R,ugm-3
18-01-2011,14:00,123,R,ugm-3,90,R,ugm-3,277,R,ugm-3
18-01-2011,15:00,139,R,ugm-3,113,R,ugm-3,325,R,ugm-3
18-01-2011,16:00,199,R,ugm-3,153,R,ugm-3,456,R,ugm-3
18-01-2011,17:00,270,R,ugm-3,138,R,ugm-3,550,R,ugm-3
18-01-2011,18:00,335,R,ugm-3,143,R,ugm-3,655,R,ugm-3
18-01-2011,19:00,309,R,ugm-3,126,R,ugm-3,598,R,ugm-3
18-01-2011,20:00,119,R,ugm-3,111,R,ugm-3,292,R,ugm-3
18-01-2011,21:00,113,R,ugm-3,90,R,ugm-3,262,R,ugm-3
18-01-2011,22:00,88,R,ugm-3,92,R,ugm-3,225,R,ugm-3
18-01-2011,23:00,98,R,ugm-3,132,R,ugm-3,281,R,ugm-3
18-01-2011,24:00,75,R,ugm-3,69,R,ugm-3,183,R,ugm-3
19-01-2011,01:00,25,R,ugm-3,48,R,ugm-3,86,R,ugm-3
19-01-2011,02:00,9,R,ugm-3,48,R,ugm-3,61,R,ugm-3
19-01-2011,03:00,9,R,ugm-3,32,R,ugm-3,46,R,ugm-3
19-01-2011,04:00,3,R,ugm-3,17,R,ugm-3,21,R,ugm-3
19-01-2011,05:00,3,R,ugm-3,11,R,ugm-3,15,R,ugm-3
19-01-2011,06:00,33,R,ugm-3,36,R,ugm-3,86,R,ugm-3
19-01-2011,07:00,94,R,ugm-3,78,R,ugm-3,222,R,ugm-3
19-01-2011,08:00,114,R,ugm-3,105,R,ugm-3,279,R,ugm-3
19-01-2011,09:00,156,R,ugm-3,180,R,ugm-3,418,R,ugm-3
19-01-2011,10:00,148,R,ugm-3,115,R,ugm-3,340,R,ugm-3
19-01-2011,11:00,165,R,ugm-3,157,R,ugm-3,409,R,ugm-3
19-01-2011,12:00,134,R,ugm-3,105,R,ugm-3,309,R,ugm-3
19-01-2011,13:00,186,R,ugm-3,180,R,ugm-3,464,R,ugm-3
19-01-2011,14:00,118,R,ugm-3,101,R,ugm-3,281,R,ugm-3
19-01-2011,15:00,,,,,,,,,
19-01-2011,16:00,189,R,ugm-3,124,R,ugm-3,413,R,ugm-3
19-01-2011,17:00,215,R,ugm-3,139,R,ugm-3,468,R,ugm-3
19-01-2011,18:00,193,R,ugm-3,147,R,ugm-3,441,R,ugm-3
19-01-2011,19:00,184,R,ugm-3,151,R,ugm-3,432,R,ugm-3
19-01-2011,20:00,256,R,ugm-3,115,R,ugm-3,506,R,ugm-3
19-01-2011,21:00,54,R,ugm-3,76,R,ugm-3,159,R,ugm-3
19-01-2011,22:00,95,R,ugm-3,80,R,ugm-3,225,R,ugm-3
19-01-2011,23:00,79,R,ugm-3,76,R,ugm-3,197,R,ugm-3
19-01-2011,24:00,44,R,ugm-3,71,R,ugm-3,138,R,ugm-3
20-01-2011,01:00,13,R,ugm-3,38,R,ugm-3,57,R,ugm-3
20-01-2011,02:00,13,R,ugm-3,31,R,ugm-3,50,R,ugm-3
20-01-2011,03:00,4,R,ugm-3,25,R,ugm-3,31,R,ugm-3
20-01-2011,04:00,4,R,ugm-3,17,R,ugm-3,23,R,ugm-3
20-01-2011,05:00,4,R,ugm-3,19,R,ugm-3,25,R,ugm-3
20-01-2011,06:00,33,R,ugm-3,31,R,ugm-3,80,R,ugm-3
20-01-2011,07:00,78,R,ugm-3,67,R,ugm-3,185,R,ugm-3
20-01-2011,08:00,129,R,ugm-3,90,R,ugm-3,287,R,ugm-3
20-01-2011,09:00,199,R,ugm-3,115,R,ugm-3,418,R,ugm-3
20-01-2011,10:00,170,R,ugm-3,132,R,ugm-3,392,R,ugm-3
20-01-2011,11:00,154,R,ugm-3,94,R,ugm-3,329,R,ugm-3